Location: Demonte
(44.3148°N, 7.2945°E)
Time: 05:45:02
(UTC+02:00)

ISS - Visible Passes

Search period start: 29 May 2017 00:00
Search period end: 08 June 2017 00:00
Orbit: 402 x 408 km, 51.6° (Epoch: 29 May)

Date Brightness Start Highest point End Pass type
(mag) Time Alt. Az. Time Alt. Az. Time Alt. Az.
29 May -1.5 00:51:16 10° NW 00:54:04 25° N 00:56:00 15° ENE visible
29 May -1.5 02:27:38 10° WNW 02:28:36 18° NW 02:28:36 18° NW visible
29 May -1.7 22:21:42 10° WNW 22:24:39 29° NNW 22:27:35 10° NE visible
29 May -1.3 23:59:08 10° NW 00:01:49 22° N 00:04:31 10° ENE visible
30 May -2.2 01:35:38 10° NW 01:37:45 33° NNW 01:37:45 33° NNW visible
30 May -1.3 23:06:53 10° NW 23:09:33 22° N 23:12:13 10° NE visible
31 May -2.3 00:43:38 10° NW 00:46:42 34° NNE 00:47:06 33° NE visible
31 May -1.3 22:14:33 10° WNW 22:17:17 23° N 22:20:00 10° NE visible
31 May -1.8 23:51:36 10° NW 23:54:28 27° NNE 23:56:32 15° ENE visible
01 Jun -1.6 01:27:58 10° WNW 01:29:09 20° WNW 01:29:09 20° WNW visible
01 Jun -1.5 22:59:28 10° NW 23:02:12 23° N 23:04:56 10° ENE visible
02 Jun -2.9 00:35:54 10° NW 00:38:39 49° NNW 00:38:39 49° NNW visible
02 Jun -1.4 22:07:14 10° NW 22:09:54 22° N 22:12:33 10° NE visible
02 Jun -2.6 23:43:52 10° NW 23:47:00 39° NNE 23:48:09 28° ENE visible
03 Jun -1.1 01:20:25 10° WNW 01:20:48 12° WNW 01:20:48 12° WNW visible
03 Jun -2.0 22:51:48 10° NW 22:54:45 29° NNE 22:57:42 10° ENE visible
04 Jun -2.6 00:28:11 10° WNW 00:30:21 37° WNW 00:30:21 37° WNW visible
04 Jun -1.7 21:59:41 10° NW 22:02:28 24° N 22:05:14 10° ENE visible
04 Jun -3.7 23:36:04 10° NW 23:39:22 70° NNE 23:39:56 54° E visible
05 Jun -2.9 22:44:00 10° NW 22:47:11 44° NNE 22:49:33 16° E visible
06 Jun -1.9 00:20:40 10° WNW 00:22:11 21° W 00:22:11 21° W visible
06 Jun -2.3 21:51:54 10° NW 21:54:55 32° NNE 21:57:56 10° E visible
06 Jun -3.7 23:28:19 10° WNW 23:31:34 55° SW 23:31:49 53° SSW visible
07 Jun -3.8 22:36:08 10° WNW 22:39:27 84° NE 22:41:29 21° ESE visible
